Location: Kailua
(21.4020°N, 157.7390°W)
Time: 21:46:57
(UTC-10:00)

Cosmos 2221 Rocket - Visible Passes

Search period start: 27 June 2016 00:00
Search period end: 07 July 2016 00:00
Orbit: 622 x 647 km, 82.5° (Epoch: 27 June)

Date Brightness Start Highest point End Pass type
(mag) Time Alt. Az. Time Alt. Az. Time Alt. Az.
02 Jul 6.7 22:46:08 10° N 22:46:14 11° N 22:46:14 11° N visible
03 Jul 6.8 23:08:29 10° NNW 23:08:29 10° NNW 23:08:29 10° NNW visible
05 Jul 6.3 22:14:56 10° N 22:15:34 14° N 22:15:34 14° N visible
06 Jul 6.4 22:37:05 10° NNW 22:37:52 15° NNW 22:37:52 15° NNW visible
